Wind_Speed
13 12 12 11 10 9 8 7 6 6 5 5 4 3 3 2 2 3 4 5 5 4 4 4 3 3 3 2 2 2 2 3 4 4 5 13 22 23 22 19 17 14 10 8 6 6 9 11 9 9 10 11 10 6 3 4 7 9 8 8 10 11 10 10 8 7 6 4 5 5 5 4 3 3 1 3 4 2 3 3 3 2 4 9 10 9 10 10
15 14 14 14 12 11 10 8 7 7 6 5 4 3 2 2 3 4 5 5 4 4 4 3 3 3 2 1 1 1 2 2 4 4 4 7 13 18 21 20 17 14 10 8 7 7 7 6 6 6 9 11 7 5 4 3 6 10 9 10 9 9 8 9 8 7 5 5 6 6 6 5 4 3 0 2 2 2 3 2 2 3 6 9 10 9 10 10
15 15 16 15 15 14 12 10 9 8 7 6 5 4 3 3 3 4 4 4 4 4 4 3 3 3 2 2 0 1 3 4 5 3 3 4 7 16 22 22 18 14 10 9 7 7 5 1 1 4 9 10 5 5 8 4 5 7 7 11 9 8 9 11 11 10 9 6 5 6 8 6 5 4 1 3 4 3 4 1 1 2 7 10 10 10 10 9
13 14 15 16 16 15 14 12 10 9 8 7 6 5 5 4 4 4 4 4 4 4 4 4 4 4 3 1 1 3 5 4 3 1 1 2 5 16 23 23 19 14 11 9 7 6 8 8 6 7 11 12 7 4 6 7 6 5 7 9 7 6 8 11 12 11 11 8 7 8 7 7 5 3 4 6 6 4 3 2 0 1 6 10 10 9 10 10
12 13 14 15 16 16 15 14 12 11 10 9 8 7 6 5 4 4 4 5 5 5 5 4 4 4 3 1 2 5 9 6 1 2 1 2 6 16 23 23 19 14 12 9 8 7 9 9 6 9 12 13 6 2 3 5 5 4 8 8 7 7 8 9 11 11 10 9 9 7 5 7 6 4 5 8 8 5 4 3 2 3 6 10 10 10 10 10
10 11 12 13 14 15 15 15 14 13 11 11 10 9 8 6 5 5 5 5 5 5 5 5 5 4 4 2 3 6 8 4 2 3 2 3 7 16 23 22 18 14 12 9 9 7 6 4 7 9 11 9 2 4 4 2 7 6 6 5 6 8 9 7 11 11 8 8 7 5 7 7 6 4 4 5 7 7 4 3 3 4 6 10 10 10 10 10
9 9 10 11 12 14 14 15 15 14 13 13 11 11 9 8 7 5 6 5 5 6 5 5 5 5 5 3 3 5 2 4 3 1 1 3 8 17 22 22 18 14 12 10 9 6 3 4 8 9 9 8 2 4 4 1 6 10 6 4 5 6 8 5 9 11 7 8 8 8 9 7 7 5 5 4 2 5 4 3 3 3 4 8 8 9 9 11
8 8 9 10 11 12 13 14 14 14 14 13 13 12 11 10 8 7 6 6 7 6 6 6 5 6 5 4 4 2 2 3 2 2 1 4 9 17 21 21 17 14 13 11 9 5 1 3 7 8 8 9 4 3 5 5 3 6 5 4 6 5 6 5 8 12 10 9 10 10 10 10 9 6 6 4 2 3 3 2 3 2 3 5 7 9 9 10
7 7 8 8 9 10 11 12 13 14 14 13 13 13 13 12 10 9 8 7 8 7 7 6 6 6 5 5 4 4 4 7 4 2 1 4 10 17 21 20 17 15 13 11 10 7 2 4 8 7 5 6 4 3 5 4 2 4 3 3 4 4 4 6 6 13 13 9 10 10 7 8 8 6 5 4 2 1 1 4 1 2 4 5 6 9 10 9
6 6 6 7 8 9 10 11 12 13 13 13 13 13 14 13 11 10 9 8 8 7 7 6 7 7 5 7 7 4 8 12 6 4 2 4 10 17 21 20 17 15 13 12 9 6 2 8 9 4 5 7 5 3 3 6 6 3 3 3 2 2 3 5 5 11 14 9 9 8 5 5 6 7 6 4 2 3 5 4 1 1 4 5 6 9 10 9
5 5 5 6 7 8 8 9 10 11 11 11 12 13 13 13 12 10 9 9 8 8 7 6 7 6 6 10 9 1 9 11 7 4 3 5 10 16 20 20 18 15 14 10 7 6 4 8 6 4 6 6 4 4 4 7 6 3 4 5 5 1 3 4 4 8 10 7 9 10 8 7 6 6 6 3 2 5 5 2 4 1 3 4 6 10 10 10
4 5 5 6 7 7 7 8 8 9 9 10 11 12 13 12 11 10 10 9 8 8 6 6 6 6 7 9 9 8 8 9 8 5 4 6 10 16 20 20 18 16 14 8 5 7 7 8 6 4 8 7 5 7 7 6 6 6 6 6 7 6 5 5 3 6 8 5 9 10 8 8 9 6 4 3 0 6 4 3 4 4 2 5 4 8 10 11
3 5 5 5 6 6 7 7 7 7 8 9 10 12 12 11 11 10 9 9 8 7 6 6 5 6 7 7 10 14 9 8 7 6 6 6 9 15 19 20 19 18 18 12 6 7 11 12 9 4 8 7 7 10 9 7 8 9 9 9 9 10 12 6 6 7 8 6 10 9 7 10 9 6 2 2 1 7 9 3 4 5 5 5 4 7 9 11
3 4 5 6 6 6 6 6 6 7 7 8 10 10 10 10 9 8 9 8 7 6 5 5 5 6 9 9 10 11 10 10 7 7 7 7 8 13 18 19 21 20 21 18 13 10 12 12 9 5 5 6 10 12 11 8 9 9 10 9 10 7 7 3 5 5 6 9 12 9 8 10 7 6 5 2 1 6 11 6 7 8 6 7 4 5 7 10
3 4 5 6 6 6 6 6 6 6 7 8 8 9 8 8 7 7 8 8 7 5 5 5 5 5 5 7 9 8 9 9 7 8 7 8 7 9 16 19 21 21 20 20 17 13 9 8 7 6 7 10 11 11 10 9 10 10 8 9 10 3 6 2 3 2 5 8 11 9 9 7 3 8 10 9 6 5 12 6 7 10 8 7 5 4 5 7
2 3 4 5 6 6 6 6 6 6 6 7 7 7 6 6 5 6 7 7 6 5 5 5 5 7 5 2 6 6 6 5 7 9 7 8 7 6 13 18 19 21 19 19 19 17 12 8 8 9 10 11 10 10 12 13 11 10 8 10 12 2 9 5 3 4 6 6 9 10 8 6 6 10 11 11 9 4 11 7 7 11 9 8 7 5 5 4
2 2 3 5 6 6 6 6 6 6 6 6 6 6 6 5 5 5 7 7 6 5 5 5 5 5 4 1 3 6 3 4 6 7 7 9 9 7 11 15 17 19 19 18 19 18 14 11 9 10 11 10 9 10 11 11 9 6 6 9 10 4 4 6 4 4 9 6 8 10 10 9 9 9 10 12 10 3 11 10 8 10 10 11 10 5 6 6
1 2 3 4 5 6 6 6 6 6 6 6 6 6 5 4 4 4 6 7 7 7 7 8 8 4 2 3 4 4 3 5 5 4 6 8 10 9 8 10 14 17 18 17 17 16 13 11 10 11 11 11 10 9 10 11 9 8 9 11 9 7 3 2 2 1 5 5 8 10 13 12 8 7 9 12 10 4 9 12 10 8 7 10 9 4 9 10
2 3 3 4 4 5 6 6 6 6 6 6 6 6 6 6 5 3 5 6 9 12 8 6 10 10 5 4 5 5 6 4 3 2 5 7 8 9 7 7 10 12 13 13 14 13 11 10 11 12 12 12 13 10 12 14 11 9 11 12 10 10 10 8 3 1 3 6 10 12 12 11 10 8 9 11 10 6 7 11 12 9 6 10 8 8 12 13
2 3 3 4 4 5 6 6 6 6 6 7 7 9 10 10 8 5 2 7 11 12 8 4 7 11 7 2 5 6 4 3 1 3 4 5 5 5 6 7 7 7 9 11 11 10 10 13 14 14 13 12 12 11 11 12 9 8 10 12 12 13 14 10 5 4 7 10 10 10 10 11 11 10 11 10 10 9 6 6 10 13 12 10 8 10 14 15
2 3 3 4 5 5 5 5 7 7 7 7 8 12 11 8 4 2 3 5 6 7 6 6 5 2 5 6 4 4 3 2 1 3 4 3 3 3 6 7 7 8 9 10 11 9 10 14 16 15 14 13 13 12 11 11 9 10 11 13 13 12 14 9 4 5 9 11 9 9 10 11 11 12 11 9 10 9 6 6 8 11 14 12 9 10 15 17
1 2 3 5 6 6 5 5 7 7 8 8 9 12 10 8 9 7 5 2 6 7 6 10 10 11 11 7 4 4 3 2 3 5 5 3 5 6 5 6 8 10 9 9 12 12 12 15 17 15 14 15 16 13 12 11 12 13 12 14 13 13 15 13 11 10 8 8 7 7 10 13 13 11 9 7 7 6 8 12 10 9 10 11 11 13 17 18
1 1 3 5 5 6 6 5 6 7 8 9 10 11 9 10 10 9 9 5 5 8 5 10 11 11 9 5 6 4 6 5 5 7 6 4 9 9 7 7 8 10 10 11 13 13 14 14 12 12 13 14 17 15 12 12 13 13 13 14 15 14 15 9 9 8 9 6 6 6 11 17 15 10 6 5 7 8 14 16 12 11 12 8 8 11 17 20
1 1 2 4 5 5 5 6 6 6 7 8 9 9 7 9 8 9 11 8 4 9 5 8 9 9 8 5 5 2 7 5 7 9 9 5 10 9 8 7 9 11 12 13 13 14 18 15 7 8 12 12 14 13 11 13 13 13 14 15 15 15 17 11 2 5 9 7 5 5 12 17 10 5 6 7 9 10 12 10 10 12 13 15 14 14 18 22
1 1 2 3 4 4 4 5 5 5 6 5 7 7 7 8 8 10 9 6 6 9 6 9 8 8 11 10 6 5 8 4 5 11 13 5 11 9 7 7 9 12 11 12 13 15 18 18 11 10 13 11 11 11 11 13 13 15 14 14 16 16 17 15 9 10 12 8 7 3 10 11 4 6 1 5 5 6 8 10 11 13 12 14 15 16 19 21
0 2 3 2 2 3 4 4 5 5 5 4 6 6 7 9 7 10 8 2 9 9 5 9 8 7 10 10 6 6 6 8 6 10 13 7 12 9 7 8 10 11 9 8 12 15 16 15 12 11 12 13 13 13 12 12 14 16 12 11 15 14 11 12 11 12 14 10 7 6 8 9 4 6 7 3 2 6 14 17 12 11 16 16 13 15 20 23
1 3 4 3 3 4 4 4 4 5 4 4 5 4 6 8 7 11 8 5 9 11 7 9 8 8 7 7 8 4 4 10 11 9 9 6 12 9 7 7 8 11 9 7 11 13 14 14 11 8 9 12 14 15 13 11 15 16 9 9 14 10 7 11 13 14 16 14 12 9 8 10 8 6 5 4 6 13 18 16 10 11 17 18 16 13 16 19
2 3 4 4 4 4 4 5 5 5 5 4 5 5 5 8 10 12 7 5 6 11 10 10 11 12 9 8 12 6 2 9 9 8 6 6 10 9 7 6 7 10 9 10 12 6 6 13 14 12 11 12 12 13 13 11 15 16 8 9 11 11 11 13 14 15 15 14 13 10 8 8 5 1 3 5 8 13 13 9 8 11 14 16 18 15 13 16
2 3 4 5 5 4 5 6 5 5 5 5 6 6 7 10 12 10 6 5 6 8 10 11 11 12 10 9 13 10 7 6 4 4 7 7 8 12 10 7 7 10 8 12 16 10 3 7 11 13 14 14 12 12 13 12 13 13 10 10 9 11 13 13 12 14 14 12 14 13 11 10 3 6 5 5 5 7 8 5 5 8 11 14 18 13 8 12
1 2 4 5 5 5 5 5 5 4 5 6 6 8 10 13 12 7 7 3 4 7 11 12 11 11 12 11 13 12 10 9 4 3 8 8 7 11 12 10 8 10 11 12 16 17 12 9 8 9 11 13 14 13 11 11 11 11 11 11 11 12 12 12 13 14 11 9 12 13 15 16 6 4 3 4 3 5 6 2 2 3 6 10 13 9 4 9
2 3 4 5 5 5 5 5 6 5 6 7 8 11 11 12 8 8 5 2 4 7 8 10 11 11 13 13 13 12 11 12 8 5 9 8 8 9 9 11 9 9 12 14 15 17 15 14 12 11 11 12 14 13 9 8 10 11 10 10 12 12 10 10 12 11 7 6 11 12 14 14 6 3 7 3 2 4 2 3 4 8 11 12 10 5 4 8
5 5 5 6 5 4 3 4 6 5 7 9 11 15 10 6 8 9 4 1 4 6 6 8 11 12 13 13 13 12 9 12 11 8 9 8 9 11 9 10 11 9 10 12 13 16 17 17 15 13 13 12 13 13 10 8 10 11 11 10 11 9 5 6 8 8 6 9 13 9 7 9 6 6 7 3 4 2 5 8 8 11 12 13 10 5 6 8
6 6 6 6 5 4 4 4 6 6 8 11 14 15 6 5 8 7 4 2 1 3 5 9 11 11 13 12 12 11 8 10 11 9 10 10 9 11 11 10 10 12 12 11 12 13 14 16 16 14 14 14 14 15 14 12 12 14 11 9 9 7 5 5 5 7 8 10 12 6 6 7 6 5 3 2 2 2 7 11 10 11 12 13 11 8 8 8
7 7 7 6 5 4 5 5 7 7 10 15 16 10 4 6 4 6 5 2 3 3 3 8 10 10 12 12 11 11 8 8 9 8 10 11 9 10 12 13 12 11 13 11 13 14 10 9 13 14 15 16 17 15 16 15 13 14 12 10 12 10 7 6 6 8 8 8 9 6 6 6 5 4 1 1 4 2 4 10 13 15 13 12 10 6 5 6
8 7 7 6 5 5 5 6 7 8 12 17 13 4 7 4 3 7 2 3 2 4 5 7 9 10 12 11 10 12 10 8 8 8 9 10 11 8 9 12 11 8 10 9 8 11 12 9 7 9 9 12 15 13 13 16 16 13 12 14 14 9 8 10 12 14 14 10 7 6 7 6 3 0 3 1 3 1 4 9 13 16 15 13 11 8 4 3
9 8 8 7 5 5 5 7 8 10 15 15 6 6 7 4 5 6 3 4 1 3 6 6 9 10 11 10 9 11 9 7 6 9 10 9 11 8 4 4 5 2 6 8 9 9 11 10 4 8 9 9 11 10 11 14 13 9 11 12 10 10 13 13 13 14 14 10 5 7 10 10 6 3 1 2 4 3 6 7 7 13 15 14 15 12 5 0
9 9 10 8 5 6 6 7 9 13 16 10 2 5 5 5 5 5 2 1 4 1 4 6 9 10 9 8 9 10 9 8 6 8 10 9 9 8 3 3 3 4 7 9 10 8 9 13 9 5 9 9 9 10 12 15 12 9 12 9 8 12 14 11 9 10 10 7 4 8 6 4 5 5 3 5 5 3 6 6 5 10 13 13 17 15 7 4
8 10 13 12 5 5 6 8 11 15 15 5 5 7 6 5 3 5 4 3 3 3 4 4 6 7 7 7 7 9 10 10 8 6 9 9 6 4 4 5 4 5 7 7 8 7 8 13 11 5 9 11 9 9 13 14 13 12 15 13 12 12 10 8 7 6 7 4 3 8 9 2 1 4 4 5 5 3 6 6 4 6 10 12 14 14 12 7
9 12 10 12 7 4 7 9 14 13 10 1 8 7 6 5 2 3 3 2 3 3 3 5 5 6 7 6 5 8 10 10 8 7 7 7 5 2 3 6 4 3 5 5 9 9 8 11 11 8 12 12 9 10 12 13 15 14 13 13 13 13 12 11 11 8 6 4 1 5 8 2 3 5 3 3 4 4 7 8 6 7 9 11 12 15 17 11
16 14 2 10 7 5 8 11 15 11 7 2 6 4 2 3 2 2 2 2 3 3 1 5 4 4 5 5 5 7 10 10 9 7 5 7 7 3 1 3 5 5 5 5 8 9 8 10 12 11 10 8 8 9 10 11 13 14 14 13 12 12 13 13 14 13 9 6 1 1 3 3 5 6 3 2 2 7 9 11 12 13 12 12 13 15 19 15
17 11 2 8 5 7 11 13 13 8 3 6 7 3 2 2 2 3 1 2 3 3 2 5 3 3 5 5 4 6 7 8 9 8 5 5 5 3 2 0 4 5 6 7 7 8 8 9 11 12 10 11 10 7 8 11 12 12 13 13 11 10 11 11 11 11 12 11 5 3 4 3 3 3 2 3 4 7 9 9 9 12 14 14 14 16 20 17
16 7 4 7 1 11 14 9 5 4 6 7 3 1 2 4 2 2 2 3 3 2 3 5 3 3 5 2 1 6 7 7 8 7 3 2 1 2 1 2 3 4 8 9 7 6 9 10 12 14 13 16 16 12 12 13 13 15 15 13 13 13 14 12 9 9 12 11 6 4 5 2 4 3 2 4 6 6 8 8 8 10 15 16 16 18 20 16
14 3 6 5 6 13 10 2 5 7 6 3 3 2 1 2 2 2 1 3 3 3 3 4 3 3 3 3 3 5 5 6 7 4 3 4 1 2 2 5 4 5 7 8 6 8 10 10 12 15 15 18 19 18 17 14 11 12 13 14 16 15 16 16 15 15 12 6 8 6 4 1 4 4 4 7 7 4 5 8 10 10 14 15 15 18 20 17
10 0 4 5 12 11 3 5 6 6 4 3 4 4 2 1 0 2 2 1 2 3 2 1 2 3 3 4 6 6 5 6 7 5 6 7 2 1 6 8 7 6 7 7 6 8 9 7 8 13 13 12 13 13 15 14 14 14 13 14 16 16 17 17 16 16 11 6 7 4 2 2 3 2 4 6 5 3 3 8 11 11 15 18 17 17 18 19
8 3 3 10 11 3 3 6 7 6 4 3 5 4 4 4 4 2 1 2 3 3 3 3 3 4 5 5 6 7 6 7 8 7 6 7 5 4 5 8 8 6 6 9 9 9 10 9 10 12 10 8 8 10 12 14 16 17 16 15 14 16 18 16 15 14 7 4 7 6 6 5 6 7 6 5 4 4 5 5 7 8 12 16 18 16 16 19
7 3 4 9 8 6 7 5 4 4 1 3 4 4 3 2 3 4 3 3 4 4 4 4 4 5 6 6 8 9 7 7 9 8 7 8 8 5 4 6 7 7 10 13 11 9 10 12 12 14 14 14 15 17 17 16 17 18 19 21 20 20 20 18 17 14 5 3 7 9 8 5 7 9 8 10 10 9 9 8 7 10 11 11 17 19 18 20
5 1 4 7 7 6 6 5 3 4 2 3 3 3 4 2 3 3 3 3 4 4 6 6 5 6 6 5 7 8 7 7 9 10 10 10 10 9 8 7 8 11 15 15 12 10 12 14 14 15 18 19 20 21 19 19 21 20 20 23 24 23 22 21 21 17 11 11 12 12 10 6 7 9 7 9 12 11 13 14 11 11 12 13 17 18 14 16
2 4 3 7 5 1 3 4 3 3 2 3 2 2 5 5 3 2 1 3 4 4 5 5 4 5 5 6 7 8 9 10 10 10 10 10 9 10 10 10 11 14 14 12 10 11 12 14 15 17 20 21 21 20 18 19 20 19 20 23 24 24 23 23 24 18 13 14 13 13 14 8 5 6 3 6 8 6 8 13 11 10 13 17 18 16 14 15
4 2 4 7 2 3 2 1 1 2 2 3 3 1 3 3 3 3 3 4 5 4 5 6 5 3 4 7 7 8 11 11 8 6 7 9 9 10 12 13 13 12 10 8 8 8 10 13 14 16 20 21 22 22 21 21 21 21 23 25 24 24 23 23 24 18 13 17 16 7 12 9 7 6 4 5 9 5 4 9 13 12 13 15 14 14 16 17
9 8 9 10 3 4 4 1 2 3 4 5 3 2 3 3 3 2 3 5 5 5 4 6 7 5 6 8 8 9 9 8 8 9 9 10 10 11 12 12 11 11 10 9 9 8 11 14 14 15 19 21 21 22 24 24 24 25 27 27 26 26 24 23 21 17 15 16 15 5 6 7 7 10 9 7 9 8 5 9 14 13 10 12 12 10 11 13
10 10 12 11 2 5 5 1 4 4 3 3 0 1 1 2 4 5 5 5 5 6 6 7 9 10 9 9 9 10 10 11 15 18 18 17 16 15 15 14 13 15 15 14 12 12 13 15 15 16 20 21 20 21 23 24 26 29 30 28 26 25 23 21 15 11 10 10 9 4 6 7 4 7 7 7 9 9 9 13 14 11 9 10 8 5 6 10
9 8 11 10 3 3 2 1 4 3 1 0 1 3 3 3 6 5 5 5 4 6 9 10 12 13 10 10 13 17 19 21 22 23 24 24 24 23 23 22 20 20 19 18 17 16 15 17 17 17 19 22 20 20 22 23 22 25 24 22 21 21 19 16 9 5 4 6 7 4 4 6 3 5 6 7 9 13 16 15 13 11 9 9 8 4 6 13
Wind_Direction
236 234 232 229 228 225 225 226 228 234 236 241 240 242 241 228 210 188 189 187 187 198 205 211 219 230 224 226 232 236 254 250 249 240 202 196 203 199 185 180 177 171 164 158 145 127 101 57 15 352 352 339 328 331 337 338 348 346 351 23 40 43 41 36 29 37 50 40 9 7 48 64 51 51 76 61 48 51 52 59 102 141 134 146 158 157 158 158
239 237 236 233 231 227 225 224 224 229 231 230 226 222 208 183 165 161 172 178 190 201 208 221 222 227 215 209 230 272 305 285 272 262 224 207 210 201 187 182 178 172 171 165 160 135 85 3 318 314 319 326 337 345 340 334 355 357 25 42 45 59 52 41 35 48 65 37 19 10 26 45 48 59 279 6 28 14 24 41 117 152 140 144 162 161 157 160
239 238 238 235 233 230 227 224 222 223 224 222 217 207 190 179 166 169 182 189 202 208 216 225 221 218 207 204 307 352 333 308 290 281 231 215 210 198 189 184 178 176 177 170 169 146 95 51 102 16 328 324 327 347 352 358 360 353 33 45 48 71 63 38 30 44 62 52 35 23 25 30 38 63 280 348 22 7 8 12 199 164 152 154 161 157 156 162
237 237 236 235 234 231 229 226 222 220 220 219 213 204 195 186 179 184 195 205 210 215 220 223 223 213 204 218 33 35 22 352 299 17 160 218 202 191 185 182 178 179 179 175 175 143 113 110 70 353 320 321 304 294 360 20 24 28 40 43 43 64 68 37 22 36 48 46 42 39 32 22 37 61 319 343 10 3 20 40 148 151 151 148 148 157 164 166
236 235 233 232 232 230 229 226 223 220 219 218 213 207 201 191 191 197 205 213 214 219 225 226 224 214 211 219 88 80 64 50 326 18 346 206 193 188 183 180 177 182 182 175 174 143 114 101 38 335 318 323 313 307 36 30 5 43 48 47 51 50 68 40 17 33 34 26 31 32 35 17 25 53 341 334 336 346 47 56 89 132 158 153 151 163 171 170
237 234 231 229 228 227 227 225 224 221 219 220 216 210 205 201 201 205 212 216 223 225 229 231 226 221 219 206 130 123 85 43 302 345 295 196 190 187 180 179 178 184 181 177 178 147 98 60 344 327 331 336 346 357 32 45 347 30 58 53 62 50 63 38 12 34 29 16 27 26 42 28 16 41 2 341 319 332 30 44 80 132 154 151 161 168 172 174
237 233 229 226 224 224 224 223 223 221 221 220 218 214 209 208 208 215 219 220 228 229 235 239 230 225 220 212 185 173 58 339 313 355 246 196 190 184 180 179 180 184 180 182 176 137 52 329 318 312 324 341 332 340 12 226 345 29 51 55 70 53 55 42 12 24 19 17 28 33 40 20 15 34 355 15 339 326 1 21 83 155 164 145 166 170 174 181
237 233 227 224 222 221 221 221 220 220 221 220 219 216 211 212 215 219 222 226 231 232 239 239 234 229 219 210 190 169 318 307 358 13 228 199 190 182 180 178 181 186 179 184 179 142 4 301 335 320 308 337 344 324 334 271 284 30 31 39 60 64 46 33 9 6 14 20 23 40 36 358 10 43 355 21 144 316 332 273 94 127 193 156 171 164 173 190
237 232 225 221 219 219 219 219 219 220 221 221 220 216 213 213 215 219 223 229 230 232 237 237 237 226 212 203 155 80 269 258 303 314 219 196 192 183 180 179 183 185 179 188 183 156 176 285 321 326 315 333 328 299 320 316 7 28 2 5 34 61 17 13 7 359 11 12 15 43 37 355 15 47 21 36 133 304 233 216 97 101 202 181 181 164 175 198
236 231 222 216 216 217 219 220 222 223 223 222 219 214 211 211 213 218 222 226 227 229 231 231 230 218 206 188 136 69 267 261 277 255 212 196 194 186 183 183 185 184 184 190 182 164 229 301 298 285 315 322 305 291 302 328 351 351 323 307 350 56 340 353 2 356 12 1 351 10 352 356 33 56 56 38 72 140 161 184 286 224 192 194 196 181 183 191
234 228 218 214 216 217 221 223 224 224 222 218 212 207 205 205 209 213 218 223 221 220 221 224 222 209 199 179 148 137 262 259 257 226 200 196 195 190 188 188 188 189 186 188 200 204 262 296 276 250 312 327 290 288 288 308 332 308 311 279 237 151 312 331 347 349 13 351 336 351 347 358 10 43 76 57 79 186 172 171 282 306 179 225 214 200 195 184
228 220 214 213 214 218 222 223 222 220 215 207 201 199 199 200 204 208 213 214 210 209 211 217 213 203 197 183 194 230 247 256 248 219 198 197 199 195 194 193 192 194 186 187 243 246 265 258 226 253 311 317 282 301 296 274 296 285 288 273 238 209 248 301 347 348 3 348 345 0 354 357 345 352 62 64 223 246 251 189 259 316 274 259 237 215 209 201
222 213 209 209 209 217 221 221 219 212 204 198 195 195 195 196 198 202 203 202 200 197 201 206 204 201 180 173 225 237 243 258 247 225 211 197 201 199 199 198 197 201 194 188 210 242 257 236 207 248 297 299 279 308 315 275 276 275 272 271 253 215 216 272 346 355 2 342 346 5 341 330 329 341 55 138 214 272 281 262 269 296 285 282 264 234 227 223
216 208 205 203 206 214 219 219 215 208 199 192 190 191 189 191 193 193 193 190 186 182 192 194 188 194 181 191 238 247 246 254 243 232 221 197 204 202 202 205 204 209 208 202 194 208 234 226 215 246 288 300 288 303 314 283 261 266 273 258 255 235 199 279 354 14 359 317 327 356 337 325 318 331 343 317 17 257 269 301 308 293 291 294 278 241 232 232
217 208 202 200 204 212 217 215 210 202 195 188 185 184 183 185 183 183 182 178 176 174 177 174 175 180 183 232 267 268 245 249 244 232 222 205 205 206 208 210 211 215 219 220 217 219 228 221 229 259 288 297 289 287 293 282 257 252 272 263 263 248 138 203 278 306 326 305 320 339 325 334 307 293 310 328 356 263 265 292 296 295 306 298 288 270 246 231
224 209 197 198 202 209 213 211 205 197 193 187 182 180 179 180 175 176 173 170 166 161 164 160 163 148 119 254 274 290 255 236 244 231 218 209 195 209 218 211 215 221 223 228 231 235 243 241 250 268 281 287 278 274 284 290 276 247 252 277 286 231 148 169 218 289 327 314 316 324 312 319 298 278 284 314 347 282 269 271 257 289 311 305 301 290 273 246
226 206 192 195 197 206 209 205 199 194 192 185 178 178 173 168 165 165 165 164 157 146 149 142 139 133 94 5 301 328 303 211 238 228 215 214 194 210 222 211 217 223 225 231 233 237 243 249 261 263 270 277 270 277 278 278 293 285 265 278 295 327 150 162 164 303 342 346 314 311 291 283 289 280 259 287 329 288 261 264 254 285 300 302 314 293 262 277
207 195 186 192 194 201 203 200 196 191 190 179 171 166 152 149 147 155 164 158 148 129 112 123 113 62 17 59 32 331 251 222 248 230 218 221 210 222 224 212 220 223 226 233 236 240 242 249 259 258 264 262 249 261 261 265 313 329 313 313 317 337 331 216 145 25 358 338 306 301 287 283 300 303 255 269 311 298 264 275 270 279 269 276 308 266 238 257
180 183 182 187 188 196 198 197 193 189 187 172 165 154 132 119 104 115 163 155 149 127 92 135 117 59 26 89 108 190 219 247 268 238 229 224 224 231 220 215 225 222 225 234 240 242 236 239 247 249 254 250 241 247 260 277 314 320 304 312 306 301 298 283 264 104 30 331 304 302 306 310 321 323 282 277 303 293 273 283 279 286 256 247 264 239 242 257
174 180 179 180 177 190 198 194 189 190 185 170 164 152 124 89 48 12 172 163 169 146 106 152 122 52 21 104 155 200 248 295 261 256 249 222 222 221 207 216 225 218 214 223 237 234 228 235 240 242 244 251 254 248 260 281 308 316 293 287 282 284 289 282 246 241 308 324 312 305 312 312 310 308 289 282 292 281 271 277 275 289 287 261 246 246 261 271
178 184 175 177 176 191 197 188 188 188 182 175 171 165 139 102 57 334 167 159 196 181 138 165 183 169 174 165 187 239 301 341 203 237 246 212 192 183 204 210 204 220 217 217 232 220 220 238 241 244 245 251 257 255 277 291 295 299 286 284 283 276 278 275 233 242 292 311 308 301 304 304 305 304 293 278 275 262 256 279 268 275 287 277 259 260 268 274
151 178 176 180 181 194 193 181 190 186 183 184 182 186 179 160 157 154 153 182 257 249 197 192 205 200 190 191 232 219 192 234 228 229 242 185 147 158 214 228 201 223 227 216 230 216 217 241 241 246 252 253 256 263 285 287 284 285 277 280 278 270 275 258 227 240 280 309 301 296 304 302 296 296 305 292 270 250 265 287 277 251 269 288 292 276 261 267
95 143 183 189 191 198 191 181 189 185 186 191 191 199 195 167 151 140 142 149 252 258 224 212 208 196 209 257 280 225 169 204 226 229 244 175 152 163 203 236 215 225 230 215 226 224 225 240 236 237 246 251 256 262 279 275 271 271 266 271 268 270 280 250 200 238 275 296 291 292 301 299 285 265 273 265 251 277 289 295 293 262 243 249 286 274 260 272
95 148 190 199 203 199 194 188 190 190 190 196 198 202 195 174 154 143 137 120 220 246 236 224 215 203 217 243 268 214 150 197 223 228 250 182 165 191 204 229 232 231 236 223 227 238 242 252 262 252 246 253 257 255 266 269 266 264 258 263 270 275 280 275 264 290 283 262 245 289 302 305 299 216 229 257 260 284 294 306 319 298 256 238 252 255 258 272
127 212 206 210 205 195 199 188 188 196 189 196 199 198 197 187 164 155 145 116 185 219 224 209 205 204 216 229 232 158 152 223 224 225 253 198 168 208 222 235 235 227 239 237 232 243 251 258 273 269 255 261 266 257 261 264 267 270 260 255 261 266 276 291 311 303 285 238 205 285 306 309 6 102 324 292 267 265 282 298 315 324 303 279 279 268 264 267
133 220 219 212 185 185 197 182 190 192 185 207 199 192 194 187 175 165 161 187 193 193 201 200 200 188 205 229 208 153 201 231 191 215 254 217 178 206 232 238 239 229 240 255 248 248 249 253 260 257 253 257 257 258 262 264 267 268 270 275 268 259 266 291 295 283 282 267 248 271 288 292 328 39 9 331 224 275 299 303 301 324 327 324 317 282 270 266
312 226 216 203 172 178 181 177 192 176 170 210 191 186 189 179 179 168 175 250 202 180 180 187 204 195 188 209 177 146 229 197 184 217 250 211 181 197 227 227 238 238 234 251 260 253 242 243 252 250 253 253 251 254 251 251 260 259 272 302 292 287 277 281 279 271 279 286 274 256 255 277 290 333 338 278 275 298 312 315 300 317 328 334 335 301 273 262
303 234 216 203 183 173 171 174 188 177 171 193 180 173 169 169 176 173 198 274 153 161 191 192 207 206 191 194 182 174 187 178 202 233 225 205 179 185 227 229 243 250 237 240 250 251 227 235 242 242 250 252 249 253 249 246 254 257 283 318 303 297 281 281 285 282 288 293 287 275 267 281 286 244 213 231 277 301 315 314 291 311 323 334 340 321 279 255
285 237 218 198 185 173 171 176 186 188 177 172 169 158 153 165 170 176 230 274 130 159 205 205 210 203 185 191 192 198 214 204 243 230 203 231 199 187 214 227 246 260 250 243 248 253 262 250 246 240 243 248 246 249 255 259 253 256 293 316 300 286 278 278 278 280 289 291 295 298 286 283 224 155 196 227 257 314 328 302 274 308 317 332 345 338 292 266
241 216 203 187 187 175 166 175 180 178 164 160 157 148 155 161 166 203 239 226 147 175 203 209 212 198 186 195 198 204 216 212 220 181 192 233 229 203 214 223 242 263 258 255 257 257 262 268 262 251 245 245 245 246 248 253 256 266 289 297 286 274 264 266 271 281 288 284 295 298 285 281 244 163 327 291 257 339 356 338 228 255 279 309 336 352 325 280
106 159 176 173 182 176 175 181 172 165 155 151 148 145 152 157 177 245 254 124 149 179 197 207 200 193 191 194 199 203 212 210 209 212 204 219 231 221 228 233 239 256 249 246 248 246 247 251 249 250 253 247 249 256 249 240 252 266 273 282 287 276 258 264 277 284 286 280 290 291 289 295 299 332 343 10 47 15 351 298 278 256 268 294 312 338 329 303
102 130 152 163 170 169 185 179 162 160 147 146 149 144 143 172 209 245 270 307 231 199 199 198 186 190 193 196 202 198 209 212 204 215 220 218 219 217 227 234 230 243 249 247 244 235 232 239 242 244 246 238 238 247 248 241 236 240 251 262 274 280 270 263 269 266 263 275 286 299 308 298 308 326 327 29 72 28 308 316 308 280 289 312 317 321 344 351
105 123 137 151 157 155 166 162 156 153 143 150 150 139 146 241 232 241 242 232 233 169 186 186 181 188 189 199 205 193 207 216 203 217 223 220 226 223 229 235 234 258 276 280 274 257 233 223 223 228 233 226 223 231 233 226 215 216 230 245 253 272 279 262 262 254 255 272 282 323 350 292 297 339 344 43 55 299 321 338 336 312 308 320 320 314 343 2
106 117 129 138 141 148 154 155 155 150 150 155 146 138 225 259 249 256 240 144 87 105 164 172 174 183 189 204 203 188 208 211 196 219 219 216 234 234 234 231 228 258 278 279 284 291 284 239 216 222 228 215 211 226 236 240 240 232 234 253 257 257 265 276 283 268 272 289 275 279 313 309 337 348 233 351 342 307 344 344 333 326 324 332 336 328 354 2
105 110 121 127 130 139 149 152 150 153 158 155 148 188 261 251 256 267 249 94 128 162 154 165 174 182 191 211 209 194 215 217 198 218 219 217 231 239 249 235 215 236 263 264 290 301 294 281 231 219 225 203 204 223 239 253 269 263 257 275 276 263 263 270 274 281 291 296 278 282 324 353 19 319 181 72 342 320 7 342 324 328 339 346 343 335 10 25
102 107 110 110 119 131 145 150 145 158 162 154 163 264 266 231 264 303 61 83 298 167 154 174 188 191 189 206 212 195 211 231 215 220 220 223 234 235 267 253 191 203 274 287 313 303 286 293 253 200 200 191 211 233 227 237 262 271 259 274 292 286 286 282 277 292 295 282 299 352 8 11 349 290 213 353 328 324 346 351 333 330 340 346 343 346 20 87
103 111 102 90 108 129 138 148 147 160 158 146 210 275 279 239 255 323 10 286 304 223 181 190 191 203 203 200 202 187 202 225 214 222 224 220 233 227 221 268 264 289 301 309 314 305 300 308 303 234 216 212 226 247 233 226 241 258 255 274 315 292 284 293 292 304 299 277 332 346 335 356 326 293 286 289 295 326 335 349 3 343 344 348 343 344 351 306
118 110 82 51 50 130 140 146 152 159 155 149 272 259 287 293 289 320 290 270 293 222 227 227 191 219 239 225 201 179 199 219 200 220 235 208 204 211 208 250 281 297 296 291 289 299 309 301 297 279 259 248 228 240 247 234 234 255 268 287 311 294 283 296 287 296 302 280 2 326 293 218 199 293 310 300 298 342 348 354 24 352 343 343 330 318 322 317
95 84 63 7 359 136 144 146 154 158 154 227 287 264 278 304 336 325 266 237 262 231 252 267 235 235 239 242 238 186 198 226 207 208 238 203 184 225 244 253 269 319 320 280 274 296 309 295 289 278 271 259 212 214 242 239 230 240 259 271 277 274 276 281 270 270 289 274 200 286 289 355 15 328 4 15 319 303 311 309 296 297 310 322 319 310 316 307
86 79 51 317 338 135 144 149 155 149 140 233 294 298 298 311 11 353 223 213 260 242 302 320 288 246 220 233 259 214 207 234 231 218 220 193 191 220 278 279 270 284 319 297 276 287 285 277 280 281 279 263 220 216 238 251 245 234 237 250 255 255 257 263 269 272 280 289 278 200 280 321 355 355 28 61 288 276 286 294 305 316 316 313 308 309 319 307
83 82 241 303 344 137 142 145 150 141 169 253 270 273 259 280 7 20 217 240 280 239 271 332 329 275 255 234 258 266 238 233 243 250 239 194 186 184 154 344 292 280 294 291 280 281 277 277 280 277 268 255 250 249 243 255 271 268 261 265 267 270 268 265 270 272 270 275 276 123 143 223 286 336 300 286 306 302 306 317 332 333 325 319 306 304 318 308
72 84 247 300 10 135 133 142 177 229 257 258 249 202 239 251 297 342 221 229 278 257 268 297 295 297 295 257 262 293 270 246 252 260 270 293 26 109 172 306 319 296 288 286 291 293 282 288 293 284 276 270 273 279 270 264 268 269 271 275 279 287 285 276 276 280 280 291 320 57 96 180 264 270 262 327 342 323 309 327 349 338 325 324 314 309 318 309
78 96 274 284 155 135 126 176 258 252 258 262 215 219 288 245 271 319 254 221 256 280 286 272 257 278 305 294 295 304 290 271 274 285 304 303 326 133 280 303 300 304 301 284 297 310 286 279 289 288 286 284 280 277 276 282 286 273 268 270 275 283 283 282 289 292 295 348 32 35 59 170 254 275 302 309 311 307 318 343 356 339 320 316 308 307 312 305
79 103 272 195 157 133 108 296 290 267 278 309 244 235 268 220 198 16 23 13 309 322 330 288 261 264 291 285 277 297 307 281 284 301 282 280 307 314 298 300 283 292 309 276 268 298 292 283 291 289 288 285 280 278 278 288 309 313 300 282 275 275 275 279 286 287 294 356 7 326 248 230 236 265 304 292 288 310 337 356 359 336 316 317 316 314 310 300
91 143 172 173 168 141 290 281 305 295 268 253 233 229 230 225 242 297 345 318 316 332 328 316 299 269 282 292 272 278 289 273 279 299 284 274 294 309 308 304 287 278 286 270 262 278 286 287 285 282 288 292 282 290 301 302 301 298 292 290 291 287 282 282 284 281 282 337 319 270 233 262 269 249 239 231 255 290 283 312 340 320 309 310 308 312 310 297
114 159 178 187 204 261 265 251 306 322 259 215 224 226 219 221 267 265 253 274 296 308 292 298 319 290 285 291 280 275 273 266 270 282 288 279 277 294 323 317 300 273 270 279 283 287 284 279 276 272 274 276 271 275 290 293 282 278 282 288 294 297 295 290 285 286 277 239 254 235 228 266 273 248 220 210 236 273 286 293 298 284 284 285 287 300 305 293
92 302 215 187 197 250 250 223 254 314 304 224 222 232 236 288 334 247 232 278 299 301 280 278 294 298 303 309 296 285 275 277 279 276 282 279 272 284 299 308 300 280 285 297 295 286 280 273 273 271 267 269 272 273 278 276 270 273 279 281 284 289 291 287 284 288 283 260 244 227 230 255 261 249 221 218 246 275 286 292 300 291 283 276 281 298 306 296
352 315 218 176 156 286 257 200 230 319 328 234 264 285 248 280 307 245 257 319 320 310 282 285 301 289 305 323 311 295 289 291 289 281 284 284 279 285 289 298 299 285 292 308 288 270 275 274 277 280 277 278 279 278 279 276 270 269 270 272 274 279 282 283 284 289 290 286 276 241 224 213 221 252 230 217 247 282 291 292 307 309 294 286 287 299 306 302
215 154 169 188 167 345 301 172 229 310 332 260 285 296 253 309 321 270 291 312 325 318 262 276 324 308 299 323 313 297 297 295 287 290 308 300 292 296 295 295 295 283 285 303 289 277 283 281 281 284 282 281 279 279 280 278 276 275 272 273 274 276 278 277 281 293 318 332 334 285 221 195 185 221 218 216 247 277 314 298 301 307 302 293 288 288 291 298
188 152 167 188 203 282 247 247 302 285 289 278 275 251 249 317 347 318 307 293 314 341 283 283 327 313 289 311 311 299 296 281 259 266 290 296 290 293 295 292 288 284 289 296 290 288 288 283 284 287 286 282 277 277 276 274 275 275 274 274 273 275 278 278 286 306 322 335 356 30 181 184 194 217 222 230 258 279 295 294 298 300 294 290 289 284 287 301
192 178 178 170 150 285 235 257 297 270 283 274 234 44 278 307 320 311 305 283 289 316 293 282 303 295 289 304 296 277 265 253 250 254 263 273 276 275 275 272 270 279 288 289 285 284 284 283 286 288 285 282 280 278 276 275 276 274 272 273 272 273 277 280 294 324 323 313 335 23 127 137 174 229 246 257 267 280 288 292 297 295 278 275 288 311 298 280
194 196 186 163 80 332 225 285 284 259 345 340 202 324 318 320 323 311 296 296 309 309 288 280 285 285 294 298 274 258 253 254 259 265 270 276 276 273 270 268 268 272 275 276 278 278 277 279 282 283 281 281 282 283 284 283 279 273 271 273 273 274 279 284 297 350 339 303 311 333 118 138 210 264 287 291 281 281 287 290 293 296 282 248 225 231 275 262
Height
3158 3159 3159 3159 3160 3160 3160 3160 3161 3161 3161 3161 3161 3161 3161 3161 3162 3162 3163 3163 3164 3164 3165 3165 3165 3166 3166 3166 3166 3166 3166 3166 3166 3166 3166 3167 3166 3167 3169 3171 3173 3174 3175 3176 3176 3176 3176 3177 3179 3180 3179 3178 3179 3180 3182 3181 3180 3180 3179 3178 3179 3179 3180 3179 3179 3178 3178 3177 3176 3176 3175 3175 3175 3175 3175 3175 3176 3176 3176 3175 3175 3174 3173 3174 3175 3176 3176 3176
3157 3158 3158 3159 3159 3159 3160 3160 3160 3160 3160 3161 3161 3161 3161 3162 3162 3162 3163 3164 3164 3165 3165 3165 3166 3166 3166 3166 3167 3167 3167 3167 3166 3166 3166 3167 3167 3168 3170 3172 3173 3175 3175 3176 3176 3177 3177 3178 3180 3180 3180 3180 3181 3182 3181 3180 3181 3181 3180 3180 3180 3180 3180 3179 3179 3178 3178 3178 3177 3176 3176 3176 3176 3176 3175 3175 3175 3175 3176 3175 3174 3174 3174 3174 3175 3176 3176 3177
3156 3156 3157 3157 3158 3158 3159 3159 3160 3160 3160 3160 3161 3161 3161 3162 3162 3163 3163 3164 3164 3165 3165 3166 3166 3166 3167 3167 3167 3167 3167 3167 3166 3166 3166 3167 3167 3168 3170 3172 3174 3175 3176 3176 3177 3177 3177 3178 3179 3179 3180 3180 3182 3183 3181 3180 3180 3181 3181 3181 3181 3181 3179 3179 3178 3178 3178 3178 3178 3177 3177 3176 3177 3176 3175 3175 3176 3176 3175 3175 3174 3174 3174 3173 3174 3175 3176 3177
3155 3155 3155 3156 3157 3157 3158 3159 3159 3160 3160 3160 3161 3161 3162 3162 3163 3163 3164 3164 3165 3165 3166 3166 3166 3167 3167 3167 3168 3168 3167 3167 3166 3166 3167 3167 3168 3168 3170 3172 3174 3175 3176 3177 3178 3178 3178 3179 3178 3180 3181 3180 3182 3183 3182 3181 3181 3181 3181 3182 3182 3182 3180 3179 3179 3178 3178 3178 3178 3178 3178 3177 3177 3177 3175 3175 3176 3176 3174 3175 3174 3173 3174 3173 3173 3175 3176 3177
3154 3154 3154 3155 3155 3156 3157 3158 3158 3159 3159 3160 3160 3161 3162 3162 3163 3163 3164 3164 3165 3165 3166 3166 3167 3167 3168 3168 3168 3168 3168 3168 3167 3167 3167 3167 3168 3169 3171 3172 3174 3176 3177 3177 3178 3179 3179 3179 3179 3180 3181 3180 3182 3182 3182 3183 3181 3181 3182 3182 3183 3182 3181 3180 3179 3179 3178 3179 3178 3178 3178 3178 3177 3177 3176 3175 3175 3175 3174 3174 3173 3173 3173 3173 3173 3175 3176 3177
3153 3153 3153 3154 3154 3155 3156 3157 3157 3158 3159 3160 3160 3161 3161 3162 3163 3163 3164 3164 3165 3165 3166 3166 3167 3167 3168 3168 3169 3169 3168 3169 3168 3167 3168 3168 3169 3170 3171 3173 3175 3176 3177 3178 3179 3179 3179 3181 3181 3182 3183 3182 3183 3183 3182 3183 3181 3181 3182 3183 3183 3183 3182 3181 3180 3179 3179 3179 3179 3179 3178 3178 3178 3178 3178 3176 3175 3175 3174 3174 3173 3173 3174 3174 3175 3175 3176 3177
3152 3152 3153 3153 3153 3154 3155 3156 3157 3158 3158 3159 3160 3160 3161 3162 3163 3163 3164 3164 3165 3165 3166 3167 3167 3168 3168 3169 3169 3169 3169 3169 3168 3168 3168 3169 3169 3170 3172 3174 3175 3177 3178 3179 3179 3180 3181 3183 3183 3184 3184 3184 3184 3183 3183 3183 3182 3182 3183 3183 3183 3183 3183 3182 3181 3180 3180 3180 3179 3179 3179 3179 3179 3178 3178 3177 3176 3174 3174 3174 3174 3173 3175 3175 3175 3175 3176 3177
3151 3152 3152 3152 3153 3154 3154 3155 3156 3157 3158 3158 3159 3160 3161 3161 3162 3163 3164 3164 3165 3165 3166 3166 3167 3168 3168 3169 3169 3170 3170 3168 3168 3169 3169 3169 3170 3171 3173 3175 3176 3177 3178 3179 3180 3181 3182 3184 3185 3185 3185 3184 3184 3184 3183 3183 3183 3183 3183 3183 3183 3183 3183 3182 3181 3180 3180 3180 3179 3179 3179 3179 3178 3178 3178 3178 3178 3175 3174 3174 3175 3174 3174 3175 3176 3176 3176 3177
3151 3151 3152 3152 3153 3153 3154 3155 3155 3156 3157 3158 3159 3159 3160 3161 3162 3163 3164 3164 3165 3165 3166 3166 3167 3168 3169 3169 3170 3171 3170 3168 3168 3169 3169 3170 3171 3172 3174 3175 3176 3178 3179 3179 3180 3181 3182 3185 3186 3185 3185 3185 3184 3184 3184 3182 3182 3183 3184 3184 3183 3183 3182 3182 3182 3181 3180 3180 3179 3179 3179 3179 3177 3177 3178 3178 3178 3177 3175 3174 3175 3176 3176 3176 3176 3176 3177 3177
3151 3151 3151 3152 3153 3153 3154 3154 3155 3156 3156 3157 3158 3159 3160 3161 3161 3162 3163 3164 3165 3165 3166 3167 3167 3168 3169 3169 3170 3171 3170 3168 3169 3169 3170 3171 3171 3173 3174 3176 3177 3178 3179 3180 3181 3182 3183 3185 3185 3185 3185 3185 3185 3185 3184 3183 3182 3184 3184 3184 3183 3183 3182 3182 3182 3181 3180 3180 3179 3178 3178 3178 3177 3177 3178 3179 3179 3178 3175 3174 3175 3176 3176 3176 3176 3176 3176 3177
3151 3151 3151 3152 3153 3153 3154 3154 3155 3155 3156 3157 3158 3158 3159 3160 3161 3162 3163 3164 3164 3165 3166 3166 3167 3168 3169 3169 3170 3170 3169 3168 3169 3169 3170 3171 3172 3173 3174 3176 3177 3178 3179 3180 3182 3182 3184 3185 3184 3184 3185 3185 3185 3185 3185 3183 3183 3184 3184 3183 3183 3182 3182 3181 3181 3180 3180 3180 3179 3178 3178 3177 3177 3177 3177 3179 3178 3176 3175 3175 3175 3175 3176 3175 3176 3176 3176 3177
3150 3151 3151 3152 3152 3153 3154 3154 3155 3155 3156 3156 3157 3158 3159 3160 3161 3162 3163 3163 3164 3165 3166 3166 3167 3168 3168 3170 3170 3169 3169 3169 3169 3170 3171 3172 3172 3173 3174 3176 3177 3178 3179 3181 3183 3184 3184 3184 3183 3184 3185 3185 3185 3185 3184 3183 3183 3184 3183 3182 3181 3181 3180 3180 3181 3180 3180 3181 3179 3178 3178 3177 3177 3177 3177 3179 3178 3174 3174 3175 3174 3175 3175 3174 3175 3175 3176 3176
3150 3151 3151 3152 3152 3153 3153 3154 3155 3155 3156 3156 3157 3158 3159 3160 3161 3161 3162 3163 3164 3165 3166 3166 3167 3168 3169 3170 3169 3168 3169 3170 3170 3171 3171 3172 3173 3174 3175 3176 3177 3178 3178 3180 3183 3184 3183 3182 3182 3183 3184 3184 3185 3184 3182 3183 3184 3183 3182 3181 3179 3178 3178 3179 3180 3180 3180 3180 3179 3178 3178 3177 3176 3176 3176 3179 3178 3174 3174 3175 3174 3175 3174 3174 3175 3174 3175 3175
3150 3151 3151 3152 3152 3153 3153 3154 3155 3155 3156 3157 3157 3158 3159 3160 3161 3161 3162 3163 3164 3165 3166 3167 3167 3168 3169 3169 3168 3168 3170 3170 3170 3171 3172 3173 3173 3174 3175 3176 3177 3178 3178 3179 3180 3181 3181 3182 3183 3183 3183 3184 3185 3184 3183 3183 3183 3182 3181 3179 3178 3177 3177 3179 3180 3180 3180 3180 3180 3179 3178 3177 3176 3176 3176 3177 3178 3176 3175 3175 3174 3174 3174 3174 3174 3174 3175 3174
3150 3151 3151 3151 3152 3153 3153 3154 3155 3155 3156 3157 3157 3158 3159 3160 3161 3162 3162 3163 3164 3165 3166 3167 3168 3168 3169 3169 3169 3169 3169 3170 3171 3171 3172 3173 3174 3175 3175 3176 3177 3178 3178 3180 3180 3180 3181 3182 3183 3184 3184 3185 3185 3185 3183 3182 3181 3180 3179 3177 3176 3176 3176 3179 3180 3179 3180 3179 3179 3179 3178 3177 3177 3176 3176 3176 3177 3176 3175 3176 3175 3174 3174 3173 3173 3174 3174 3174
3150 3151 3151 3151 3152 3153 3153 3154 3155 3156 3156 3157 3158 3159 3160 3160 3161 3162 3163 3164 3165 3165 3166 3167 3168 3169 3170 3170 3169 3169 3169 3170 3171 3171 3172 3173 3174 3175 3175 3176 3177 3178 3179 3180 3181 3181 3182 3183 3184 3184 3185 3185 3185 3184 3183 3181 3178 3177 3178 3176 3175 3174 3175 3177 3178 3178 3179 3179 3178 3178 3178 3178 3177 3175 3175 3175 3176 3176 3174 3176 3176 3174 3174 3173 3173 3173 3173 3174
3151 3151 3151 3152 3152 3153 3153 3154 3155 3156 3157 3157 3158 3159 3160 3161 3162 3162 3163 3164 3165 3166 3167 3168 3168 3169 3169 3169 3169 3169 3170 3170 3170 3171 3172 3173 3174 3175 3175 3176 3177 3178 3179 3180 3181 3182 3183 3183 3184 3185 3185 3184 3184 3184 3183 3180 3176 3175 3176 3175 3175 3175 3174 3175 3177 3177 3178 3178 3178 3178 3177 3176 3176 3174 3174 3174 3175 3176 3174 3174 3174 3173 3173 3173 3173 3173 3173 3174
3151 3151 3151 3152 3152 3153 3153 3154 3155 3156 3157 3158 3159 3159 3160 3161 3162 3163 3164 3164 3165 3166 3167 3168 3169 3170 3170 3169 3170 3171 3170 3170 3170 3171 3172 3173 3174 3175 3175 3177 3177 3178 3179 3180 3181 3182 3183 3184 3185 3185 3185 3184 3184 3184 3182 3178 3175 3176 3176 3175 3175 3175 3174 3175 3176 3176 3177 3178 3178 3178 3176 3174 3174 3173 3173 3173 3174 3175 3174 3172 3173 3173 3173 3173 3173 3174 3173 3174
3151 3151 3152 3152 3152 3153 3153 3154 3155 3156 3157 3158 3159 3160 3161 3162 3163 3164 3165 3165 3165 3166 3168 3170 3170 3170 3171 3171 3172 3172 3171 3171 3171 3171 3172 3173 3174 3175 3176 3177 3177 3178 3180 3181 3181 3182 3184 3184 3185 3185 3184 3183 3182 3182 3181 3178 3177 3178 3179 3178 3177 3176 3175 3175 3176 3176 3176 3178 3178 3177 3175 3173 3174 3173 3171 3171 3172 3174 3174 3173 3172 3173 3174 3174 3174 3175 3174 3173
3151 3151 3152 3152 3153 3153 3154 3154 3155 3156 3157 3158 3159 3160 3161 3162 3164 3165 3165 3166 3166 3165 3167 3170 3170 3171 3173 3173 3172 3172 3171 3171 3171 3172 3172 3173 3174 3175 3176 3177 3178 3179 3180 3182 3182 3182 3184 3184 3184 3183 3183 3182 3181 3181 3180 3179 3178 3179 3180 3179 3178 3177 3175 3174 3174 3175 3176 3177 3177 3176 3175 3174 3175 3175 3173 3171 3170 3172 3174 3174 3173 3172 3172 3173 3174 3175 3174 3173
3152 3152 3152 3152 3153 3153 3154 3154 3155 3156 3157 3158 3159 3160 3160 3162 3164 3165 3165 3166 3168 3167 3167 3170 3171 3172 3174 3173 3172 3172 3172 3172 3172 3173 3172 3173 3174 3175 3176 3177 3179 3180 3180 3182 3183 3183 3183 3183 3182 3182 3182 3182 3181 3180 3180 3179 3179 3180 3180 3179 3178 3177 3175 3173 3173 3173 3174 3175 3175 3175 3175 3174 3174 3174 3173 3172 3171 3171 3172 3174 3175 3174 3171 3170 3172 3173 3173 3173
3152 3152 3153 3153 3153 3153 3154 3155 3155 3156 3157 3158 3159 3160 3160 3161 3163 3164 3165 3167 3168 3168 3168 3169 3170 3171 3172 3172 3172 3172 3173 3173 3174 3173 3173 3173 3174 3176 3177 3178 3179 3180 3180 3182 3182 3182 3182 3181 3180 3181 3181 3181 3180 3179 3179 3180 3180 3180 3180 3179 3177 3176 3173 3171 3171 3172 3173 3173 3174 3174 3174 3173 3173 3172 3172 3172 3172 3171 3171 3172 3173 3174 3172 3170 3171 3172 3172 3172
3153 3153 3153 3153 3153 3154 3154 3155 3156 3156 3158 3158 3159 3160 3161 3162 3163 3164 3165 3167 3168 3168 3168 3169 3170 3171 3172 3172 3172 3171 3173 3175 3176 3174 3173 3174 3175 3176 3178 3178 3180 3180 3180 3181 3181 3180 3180 3178 3178 3179 3180 3180 3179 3179 3179 3179 3180 3179 3179 3178 3176 3174 3172 3169 3170 3171 3171 3171 3172 3173 3173 3171 3170 3170 3171 3171 3172 3171 3171 3171 3172 3173 3172 3170 3170 3170 3171 3171
3153 3154 3153 3153 3154 3154 3155 3155 3156 3157 3158 3159 3160 3160 3162 3162 3163 3165 3165 3166 3168 3168 3168 3170 3170 3171 3172 3172 3172 3172 3173 3175 3176 3175 3173 3174 3176 3177 3178 3179 3180 3180 3180 3180 3180 3179 3178 3176 3177 3178 3178 3178 3178 3178 3179 3179 3178 3178 3177 3177 3175 3173 3172 3170 3170 3170 3169 3170 3171 3172 3171 3168 3167 3168 3170 3171 3172 3172 3171 3171 3171 3170 3171 3170 3169 3169 3169 3171
3154 3154 3154 3154 3154 3155 3156 3156 3157 3158 3158 3159 3160 3161 3163 3163 3164 3166 3166 3166 3168 3169 3169 3170 3170 3171 3172 3172 3172 3172 3173 3175 3176 3175 3173 3173 3176 3177 3178 3179 3179 3179 3179 3179 3179 3179 3177 3176 3177 3178 3177 3177 3177 3177 3178 3178 3177 3176 3175 3174 3174 3172 3171 3170 3170 3170 3170 3169 3169 3171 3170 3168 3167 3169 3170 3171 3171 3171 3170 3169 3169 3168 3169 3168 3167 3166 3165 3166
3154 3154 3154 3154 3155 3155 3156 3157 3157 3158 3159 3160 3161 3161 3163 3164 3165 3166 3167 3167 3168 3168 3168 3169 3170 3170 3171 3171 3172 3173 3174 3175 3176 3174 3173 3173 3175 3177 3178 3178 3178 3177 3178 3178 3178 3177 3176 3176 3177 3177 3177 3177 3177 3177 3177 3178 3177 3174 3172 3172 3171 3170 3170 3170 3171 3171 3169 3167 3167 3169 3169 3168 3168 3168 3170 3171 3171 3170 3169 3168 3167 3167 3167 3166 3166 3165 3163 3162
3154 3154 3154 3155 3155 3156 3156 3157 3158 3159 3160 3160 3161 3162 3163 3164 3166 3166 3167 3167 3165 3166 3167 3169 3170 3170 3171 3171 3172 3174 3173 3173 3174 3173 3173 3173 3174 3176 3176 3177 3178 3177 3177 3178 3177 3174 3174 3176 3176 3175 3176 3176 3176 3176 3176 3177 3176 3173 3172 3172 3170 3169 3170 3171 3171 3169 3168 3167 3165 3166 3168 3167 3166 3167 3169 3171 3171 3169 3168 3167 3166 3166 3166 3164 3163 3163 3163 3161
3154 3154 3154 3155 3155 3156 3157 3157 3158 3159 3160 3160 3161 3163 3163 3165 3166 3167 3168 3166 3163 3165 3167 3167 3168 3169 3171 3171 3171 3174 3173 3172 3173 3172 3173 3173 3174 3176 3176 3176 3177 3177 3177 3177 3175 3173 3173 3174 3175 3175 3176 3175 3175 3175 3174 3175 3174 3172 3172 3172 3171 3171 3171 3170 3170 3168 3167 3166 3165 3164 3165 3165 3165 3166 3167 3169 3169 3169 3167 3166 3166 3166 3165 3164 3162 3161 3161 3161
3154 3154 3154 3155 3156 3156 3157 3157 3158 3159 3160 3161 3162 3163 3164 3165 3166 3167 3169 3166 3164 3165 3166 3167 3167 3168 3170 3171 3171 3173 3174 3174 3174 3173 3173 3173 3173 3174 3175 3176 3176 3176 3176 3176 3174 3172 3172 3173 3173 3174 3174 3174 3174 3174 3173 3173 3173 3172 3172 3172 3172 3172 3171 3170 3170 3168 3167 3166 3165 3164 3164 3164 3164 3165 3166 3167 3168 3168 3167 3167 3167 3166 3165 3163 3163 3162 3161 3161
3154 3154 3155 3155 3156 3157 3157 3158 3159 3159 3160 3161 3162 3163 3164 3165 3167 3169 3168 3165 3164 3165 3165 3166 3167 3168 3169 3171 3172 3173 3174 3174 3174 3174 3174 3174 3174 3174 3174 3175 3175 3175 3175 3174 3173 3172 3172 3172 3172 3172 3173 3173 3173 3173 3172 3173 3172 3172 3172 3172 3171 3170 3170 3169 3169 3167 3167 3166 3165 3165 3165 3162 3162 3164 3166 3167 3167 3167 3167 3167 3167 3166 3163 3162 3162 3162 3162 3161
3154 3154 3155 3156 3157 3157 3158 3158 3159 3160 3161 3162 3163 3164 3165 3166 3168 3168 3165 3163 3164 3164 3164 3165 3167 3168 3169 3170 3172 3172 3173 3174 3174 3174 3174 3174 3174 3174 3174 3174 3174 3174 3174 3173 3172 3171 3171 3172 3172 3172 3172 3172 3172 3171 3171 3172 3172 3172 3172 3172 3170 3168 3167 3168 3168 3168 3167 3166 3165 3165 3164 3161 3161 3164 3166 3166 3166 3167 3168 3168 3167 3165 3163 3162 3162 3161 3161 3160
3154 3155 3155 3156 3157 3158 3158 3158 3159 3160 3161 3162 3163 3164 3166 3168 3169 3167 3164 3163 3163 3163 3164 3166 3167 3168 3169 3170 3171 3172 3172 3173 3173 3174 3174 3174 3174 3174 3174 3174 3174 3173 3171 3169 3168 3168 3168 3169 3170 3170 3170 3170 3171 3171 3171 3172 3172 3172 3172 3172 3170 3167 3166 3168 3168 3168 3167 3166 3164 3164 3163 3162 3163 3165 3167 3165 3166 3168 3168 3168 3167 3165 3164 3163 3162 3160 3159 3159
3155 3155 3156 3157 3157 3158 3159 3159 3160 3161 3162 3163 3164 3165 3168 3169 3167 3164 3163 3162 3162 3162 3164 3165 3166 3168 3169 3170 3170 3171 3172 3172 3172 3173 3173 3174 3174 3173 3173 3173 3173 3172 3170 3168 3167 3164 3163 3164 3166 3168 3168 3168 3169 3170 3170 3169 3169 3170 3169 3169 3168 3166 3167 3168 3166 3164 3164 3164 3164 3164 3163 3163 3164 3165 3167 3166 3166 3167 3167 3166 3166 3165 3164 3164 3162 3160 3158 3158
3156 3156 3157 3157 3158 3159 3159 3160 3161 3161 3162 3163 3165 3167 3168 3169 3166 3163 3161 3162 3162 3163 3164 3165 3167 3168 3169 3169 3169 3171 3171 3171 3172 3172 3172 3173 3172 3172 3171 3171 3172 3172 3171 3169 3167 3163 3160 3160 3162 3165 3165 3165 3167 3169 3168 3167 3166 3166 3166 3166 3164 3163 3165 3165 3163 3161 3160 3160 3162 3163 3162 3163 3164 3166 3167 3167 3167 3168 3167 3166 3165 3164 3164 3163 3162 3160 3157 3158
3157 3157 3158 3158 3159 3159 3160 3161 3161 3162 3163 3164 3166 3168 3168 3168 3167 3164 3162 3162 3164 3164 3165 3166 3167 3168 3169 3169 3169 3170 3170 3170 3171 3171 3171 3171 3171 3170 3169 3168 3169 3170 3170 3169 3167 3165 3163 3160 3161 3163 3164 3164 3166 3167 3168 3167 3166 3165 3165 3164 3161 3161 3163 3163 3161 3160 3158 3158 3160 3160 3161 3163 3165 3166 3167 3167 3167 3168 3168 3167 3165 3164 3163 3163 3162 3161 3158 3158
3157 3158 3159 3159 3160 3160 3161 3161 3162 3163 3164 3165 3167 3169 3168 3167 3167 3165 3164 3164 3164 3164 3165 3166 3167 3167 3167 3168 3168 3169 3169 3168 3170 3170 3170 3170 3170 3169 3169 3168 3168 3170 3170 3169 3168 3167 3164 3160 3160 3162 3163 3164 3166 3167 3167 3167 3166 3165 3164 3163 3161 3161 3161 3160 3159 3159 3158 3159 3160 3160 3163 3166 3167 3167 3166 3167 3168 3167 3168 3168 3166 3164 3163 3162 3162 3162 3160 3157
3158 3159 3159 3160 3161 3161 3161 3162 3163 3164 3166 3167 3168 3168 3168 3167 3167 3166 3166 3166 3165 3164 3165 3165 3165 3165 3165 3166 3167 3168 3169 3168 3169 3169 3168 3168 3168 3168 3169 3170 3169 3170 3171 3170 3169 3168 3167 3163 3161 3161 3162 3163 3165 3166 3166 3166 3165 3165 3163 3162 3162 3162 3160 3160 3160 3160 3160 3160 3161 3161 3164 3167 3169 3169 3167 3168 3168 3167 3168 3168 3167 3165 3163 3162 3162 3162 3162 3160
3160 3159 3159 3161 3162 3162 3163 3163 3164 3165 3167 3167 3168 3168 3167 3167 3167 3167 3167 3166 3166 3165 3165 3165 3164 3164 3165 3164 3165 3167 3168 3167 3168 3168 3167 3167 3167 3168 3170 3171 3170 3170 3171 3171 3170 3169 3169 3166 3163 3163 3162 3162 3164 3165 3165 3164 3165 3165 3163 3162 3163 3162 3161 3162 3162 3162 3162 3163 3163 3163 3163 3165 3168 3169 3167 3168 3168 3167 3167 3167 3167 3165 3164 3163 3162 3160 3161 3160
3160 3159 3160 3163 3164 3163 3164 3164 3165 3166 3167 3167 3168 3168 3167 3167 3167 3167 3167 3167 3167 3166 3166 3165 3165 3164 3165 3165 3165 3166 3167 3166 3166 3167 3166 3166 3168 3169 3170 3171 3170 3170 3171 3171 3171 3170 3170 3168 3164 3163 3162 3161 3162 3163 3163 3163 3163 3164 3164 3164 3164 3163 3162 3162 3161 3160 3160 3162 3163 3166 3165 3165 3167 3167 3166 3167 3167 3166 3166 3166 3166 3165 3164 3163 3161 3160 3159 3159
3160 3161 3164 3165 3165 3165 3165 3165 3166 3167 3168 3169 3169 3169 3168 3168 3167 3167 3167 3167 3167 3167 3166 3166 3165 3165 3165 3165 3165 3165 3166 3165 3165 3165 3166 3166 3168 3169 3170 3170 3171 3171 3171 3171 3171 3170 3170 3169 3166 3163 3162 3161 3160 3161 3162 3161 3161 3161 3162 3161 3161 3161 3161 3161 3159 3157 3158 3158 3160 3165 3169 3168 3168 3167 3166 3167 3167 3167 3166 3166 3166 3165 3164 3162 3160 3160 3159 3158
3161 3163 3166 3166 3166 3166 3166 3166 3168 3168 3169 3170 3169 3169 3169 3168 3167 3168 3168 3167 3167 3167 3167 3167 3167 3166 3166 3166 3166 3165 3165 3165 3165 3165 3165 3166 3167 3168 3169 3170 3171 3171 3171 3170 3170 3170 3169 3168 3166 3164 3163 3161 3160 3160 3162 3161 3160 3160 3159 3159 3159 3159 3159 3158 3157 3156 3157 3157 3157 3162 3167 3168 3167 3167 3167 3168 3168 3168 3167 3166 3165 3164 3163 3162 3159 3159 3159 3158
3162 3165 3167 3167 3167 3167 3167 3168 3169 3169 3170 3169 3168 3168 3169 3168 3168 3168 3168 3168 3168 3168 3168 3168 3168 3168 3167 3166 3167 3167 3166 3166 3165 3165 3165 3166 3167 3168 3169 3170 3171 3171 3171 3170 3170 3169 3168 3168 3166 3164 3163 3161 3160 3160 3161 3161 3161 3160 3159 3159 3158 3158 3158 3157 3156 3155 3156 3155 3156 3159 3163 3165 3167 3167 3167 3167 3167 3168 3167 3165 3164 3163 3162 3161 3159 3158 3158 3158
3163 3167 3168 3167 3168 3168 3167 3169 3170 3169 3170 3169 3168 3168 3168 3169 3169 3169 3168 3169 3168 3168 3169 3169 3169 3168 3168 3168 3168 3168 3167 3166 3166 3166 3166 3167 3168 3168 3169 3170 3171 3171 3171 3170 3169 3168 3168 3168 3167 3165 3164 3161 3159 3159 3159 3159 3159 3159 3158 3158 3159 3158 3158 3156 3155 3155 3155 3155 3156 3160 3162 3164 3166 3166 3166 3167 3166 3166 3166 3165 3164 3163 3162 3161 3160 3159 3158 3157
3164 3169 3169 3168 3168 3168 3168 3170 3170 3169 3169 3169 3169 3169 3169 3169 3169 3169 3169 3169 3169 3169 3169 3169 3169 3169 3169 3169 3169 3169 3168 3168 3167 3167 3168 3169 3168 3167 3169 3169 3170 3171 3170 3169 3169 3168 3168 3169 3169 3167 3164 3162 3161 3160 3159 3157 3158 3159 3158 3158 3158 3158 3157 3156 3155 3155 3155 3156 3158 3161 3163 3164 3165 3164 3165 3167 3166 3164 3164 3165 3164 3163 3162 3162 3161 3160 3158 3156
3165 3170 3170 3169 3168 3168 3168 3170 3170 3169 3169 3169 3169 3169 3169 3169 3169 3169 3169 3169 3169 3169 3169 3169 3169 3169 3170 3170 3169 3169 3169 3169 3168 3168 3168 3169 3168 3168 3168 3168 3169 3170 3169 3168 3169 3169 3169 3169 3169 3167 3165 3164 3165 3165 3162 3161 3161 3161 3159 3157 3157 3157 3156 3156 3155 3154 3154 3155 3158 3160 3160 3162 3163 3162 3163 3165 3165 3163 3163 3164 3164 3163 3162 3160 3160 3159 3157 3155
3165 3169 3171 3170 3169 3169 3169 3170 3169 3169 3169 3169 3169 3169 3169 3169 3169 3168 3169 3170 3170 3170 3170 3170 3169 3170 3170 3169 3169 3169 3169 3169 3169 3168 3168 3169 3169 3168 3167 3168 3169 3169 3168 3168 3168 3169 3169 3168 3168 3167 3166 3165 3166 3165 3164 3163 3162 3161 3159 3158 3157 3157 3156 3155 3154 3153 3153 3155 3156 3157 3157 3158 3160 3160 3160 3162 3162 3161 3162 3163 3162 3161 3161 3159 3158 3157 3155 3154
3166 3168 3170 3170 3170 3170 3170 3170 3170 3170 3169 3169 3169 3169 3170 3170 3169 3169 3169 3169 3169 3169 3170 3170 3169 3170 3170 3169 3169 3168 3168 3169 3168 3168 3168 3168 3168 3168 3167 3168 3168 3167 3167 3168 3168 3168 3167 3166 3166 3166 3164 3163 3163 3162 3162 3162 3161 3160 3160 3159 3158 3157 3156 3155 3153 3151 3153 3154 3153 3153 3154 3156 3158 3160 3159 3160 3160 3160 3160 3160 3160 3160 3159 3157 3156 3155 3154 3152
3167 3168 3169 3169 3169 3170 3170 3170 3170 3170 3170 3170 3169 3169 3170 3170 3170 3170 3169 3169 3170 3170 3169 3170 3170 3170 3170 3169 3169 3168 3168 3168 3168 3168 3168 3167 3167 3167 3167 3167 3167 3166 3166 3167 3167 3166 3166 3164 3164 3164 3162 3161 3161 3160 3160 3160 3159 3158 3158 3158 3157 3156 3155 3154 3152 3151 3152 3152 3149 3148 3150 3152 3155 3158 3158 3159 3160 3159 3158 3158 3159 3159 3157 3155 3154 3154 3153 3151
3165 3167 3168 3168 3169 3169 3169 3169 3169 3170 3170 3170 3169 3170 3170 3170 3170 3170 3169 3169 3170 3170 3169 3169 3169 3169 3169 3169 3169 3169 3169 3168 3167 3167 3166 3165 3165 3166 3166 3166 3167 3166 3166 3166 3166 3165 3164 3163 3163 3163 3161 3160 3159 3158 3158 3158 3157 3156 3156 3155 3154 3154 3153 3152 3152 3151 3150 3150 3149 3149 3150 3151 3153 3156 3157 3158 3159 3158 3158 3157 3157 3157 3156 3155 3154 3154 3153 3151
3164 3165 3165 3167 3169 3169 3169 3169 3170 3170 3170 3169 3170 3170 3170 3171 3170 3170 3169 3169 3170 3169 3168 3168 3168 3167 3168 3168 3169 3169 3167 3165 3165 3165 3165 3164 3165 3166 3166 3166 3166 3165 3165 3165 3165 3164 3164 3163 3162 3162 3160 3158 3158 3157 3156 3156 3155 3154 3153 3153 3152 3152 3151 3151 3151 3149 3148 3150 3151 3152 3152 3152 3153 3155 3156 3157 3157 3157 3157 3155 3155 3155 3154 3154 3154 3154 3153 3151
3164 3164 3165 3166 3168 3168 3168 3169 3170 3170 3170 3170 3170 3169 3170 3170 3170 3169 3169 3169 3169 3169 3167 3167 3166 3166 3166 3168 3168 3166 3163 3162 3162 3163 3163 3163 3163 3164 3164 3164 3164 3164 3163 3163 3164 3164 3163 3162 3161 3161 3158 3155 3156 3156 3154 3153 3153 3151 3150 3150 3150 3149 3149 3151 3151 3148 3148 3151 3153 3153 3153 3152 3153 3155 3156 3156 3155 3155 3154 3153 3153 3153 3153 3152 3152 3153 3152 3151
3163 3164 3165 3166 3168 3168 3169 3170 3170 3170 3169 3169 3169 3169 3170 3170 3169 3169 3169 3168 3168 3168 3166 3165 3165 3165 3166 3166 3164 3162 3161 3161 3161 3161 3161 3161 3161 3161 3161 3161 3161 3162 3162 3162 3162 3162 3162 3161 3160 3160 3157 3153 3154 3154 3152 3152 3150 3147 3147 3148 3147 3147 3148 3149 3149 3148 3148 3151 3152 3154 3154 3152 3152 3153 3154 3154 3154 3153 3153 3152 3151 3150 3151 3151 3152 3152 3152 3151